Вернуться в каталог

QIANFAN-147

АктивенСвязьPO
NORAD 69106·PAYLOAD·🇨🇳 China

Запущен May 17, 2026 с Wenchang Space Launch Site

Loading…

Ближайшие Пролёты (ближайшие 24 часа)

TLE

СвежийSource: Space-Track

Эпоха: Sep 14, 2026, 12:54 UTC

1 69106U 26108C   26257.53764539  .00000101  00000-0  13747-3 0  9990
2 69106  89.0191  13.1296 0002077 103.4897 256.6486 13.51023984 16495

Отслеживайте QIANFAN-147 в реальном времени с AllMySat

Download on the App Store